Time,TemperatureF,DewpointF,PressureIn,WindDirection,WindDirectionDegrees,WindSpeedMPH,WindSpeedGustMPH,Humidity,HourlyPrecipIn,Conditions,Clouds,dailyrainin,SoftwareType,DateUTC
2013-05-20 00:00:00,73.8,70.0,30.08,South,178,0.0,0.0,88,0.00,,,0.14,Wunderground v.1.15,2013-05-20 04:00:00,
2013-05-20 00:05:00,73.7,69.9,30.08,SSE,162,0.0,0.0,88,0.00,,,0.00,Wunderground v.1.15,2013-05-20 04:05:00,
2013-05-20 00:10:00,73.7,69.9,30.08,SSE,158,0.0,0.0,88,0.00,,,0.00,Wunderground v.1.15,2013-05-20 04:10:00,
2013-05-20 00:15:00,73.6,69.8,30.08,SSE,158,0.0,0.0,88,0.00,,,0.00,Wunderground v.1.15,2013-05-20 04:15:00,
2013-05-20 00:20:00,73.6,69.8,30.08,NE,34,0.0,0.0,88,0.00,,,0.00,Wunderground v.1.15,2013-05-20 04:20:00,
2013-05-20 00:30:00,73.4,70.0,30.08,NE,35,0.0,0.0,89,0.00,,,0.00,Wunderground v.1.15,2013-05-20 04:30:00,
2013-05-20 00:35:00,73.4,70.0,30.08,NE,38,0.0,0.0,89,0.00,,,0.00,Wunderground v.1.15,2013-05-20 04:35:00,
2013-05-20 00:45:00,73.3,69.9,30.07,East,92,0.0,0.0,89,0.00,,,0.00,Wunderground v.1.15,2013-05-20 04:45:00,
2013-05-20 00:50:00,73.2,69.8,30.07,ENE,57,0.0,0.0,89,0.00,,,0.00,Wunderground v.1.15,2013-05-20 04:50:00,
2013-05-20 00:55:00,73.2,70.1,30.06,ESE,109,0.0,1.0,90,0.00,,,0.00,Wunderground v.1.15,2013-05-20 04:55:00,
2013-05-20 01:05:00,73.2,70.1,30.06,ESE,105,0.0,1.0,90,0.00,,,0.00,Wunderground v.1.15,2013-05-20 05:05:00,
2013-05-20 01:10:00,73.2,70.1,30.06,SE,132,0.0,2.0,90,0.00,,,0.00,Wunderground v.1.15,2013-05-20 05:10:00,
2013-05-20 01:15:00,73.2,70.1,30.05,East,86,1.0,2.0,90,0.00,,,0.00,Wunderground v.1.15,2013-05-20 05:15:00,
2013-05-20 01:25:00,73.2,70.1,30.05,SSE,148,0.0,0.0,90,0.00,,,0.00,Wunderground v.1.15,2013-05-20 05:25:00,
2013-05-20 01:30:00,73.1,70.0,30.04,SSE,151,0.0,0.0,90,0.00,,,0.00,Wunderground v.1.15,2013-05-20 05:30:00,
2013-05-20 01:40:00,73.1,70.0,30.04,SSE,151,0.0,0.0,90,0.00,,,0.00,Wunderground v.1.15,2013-05-20 05:40:00,
2013-05-20 01:50:00,73.1,70.0,30.04,SSE,151,0.0,0.0,90,0.00,,,0.00,Wunderground v.1.15,2013-05-20 05:50:00,
2013-05-20 01:55:00,73.1,70.0,30.04,SSE,149,0.0,0.0,90,0.00,,,0.00,Wunderground v.1.15,2013-05-20 05:55:00,
2013-05-20 02:00:00,73.1,70.0,30.04,SSE,149,0.0,0.0,90,0.00,,,0.00,Wunderground v.1.15,2013-05-20 06:00:00,
2013-05-20 02:10:00,73.1,70.0,30.03,SSE,150,0.0,0.0,90,0.00,,,0.00,Wunderground v.1.15,2013-05-20 06:10:00,
2013-05-20 02:15:00,73.1,70.0,30.03,ESE,119,0.0,2.0,90,0.00,,,0.00,Wunderground v.1.15,2013-05-20 06:15:00,
2013-05-20 02:20:00,73.3,69.9,30.03,East,95,0.0,0.0,89,0.00,,,0.00,Wunderground v.1.15,2013-05-20 06:20:00,
2013-05-20 02:30:00,73.5,70.1,30.02,SSE,154,0.0,0.0,89,0.00,,,0.00,Wunderground v.1.15,2013-05-20 06:30:00,
2013-05-20 02:40:00,73.5,69.7,30.02,South,177,0.0,0.0,88,0.00,,,0.00,Wunderground v.1.15,2013-05-20 06:40:00,
2013-05-20 02:45:00,73.6,69.8,30.02,SSE,161,0.0,0.0,88,0.00,,,0.00,Wunderground v.1.15,2013-05-20 06:45:00,
2013-05-20 02:50:00,73.7,69.6,30.02,NE,38,0.0,0.0,87,0.00,,,0.00,Wunderground v.1.15,2013-05-20 06:50:00,
2013-05-20 03:00:00,73.8,69.7,30.01,SSE,157,0.0,1.0,87,0.00,,,0.00,Wunderground v.1.15,2013-05-20 07:00:00,
2013-05-20 03:10:00,73.8,69.7,30.01,SSE,150,0.0,0.0,87,0.00,,,0.00,Wunderground v.1.15,2013-05-20 07:10:00,
2013-05-20 03:15:00,73.7,69.6,30.01,SSE,150,0.0,0.0,87,0.00,,,0.00,Wunderground v.1.15,2013-05-20 07:15:00,
2013-05-20 03:25:00,73.7,69.6,30.01,SSE,162,0.0,0.0,87,0.00,,,0.00,Wunderground v.1.15,2013-05-20 07:25:00,
2013-05-20 03:30:00,73.7,69.6,30.01,South,178,0.0,0.0,87,0.00,,,0.00,Wunderground v.1.15,2013-05-20 07:30:00,
2013-05-20 03:40:00,73.6,69.5,30.01,South,172,0.0,0.0,87,0.00,,,0.00,Wunderground v.1.15,2013-05-20 07:40:00,
2013-05-20 03:45:00,73.6,69.5,30.01,South,172,0.0,0.0,87,0.00,,,0.00,Wunderground v.1.15,2013-05-20 07:45:00,
2013-05-20 03:55:00,73.6,69.5,30.01,SSE,157,0.0,0.0,87,0.00,,,0.00,Wunderground v.1.15,2013-05-20 07:55:00,
2013-05-20 04:00:00,73.6,69.5,30.01,SSE,150,0.0,2.0,87,0.00,,,0.00,Wunderground v.1.15,2013-05-20 08:00:00,
2013-05-20 04:05:00,73.6,69.5,30.01,SSE,161,0.0,2.0,87,0.00,,,0.00,Wunderground v.1.15,2013-05-20 08:05:00,
2013-05-20 04:15:00,73.6,69.5,30.01,South,182,0.0,1.0,87,0.00,,,0.00,Wunderground v.1.15,2013-05-20 08:15:00,
2013-05-20 04:25:00,73.4,69.6,30.02,South,182,0.0,0.0,88,0.00,,,0.00,Wunderground v.1.15,2013-05-20 08:25:00,
2013-05-20 04:30:00,73.3,69.5,30.01,South,182,0.0,0.0,88,0.00,,,0.00,Wunderground v.1.15,2013-05-20 08:30:00,
2013-05-20 04:40:00,73.1,69.3,30.01,South,182,0.0,0.0,88,0.00,,,0.00,Wunderground v.1.15,2013-05-20 08:40:00,
2013-05-20 04:45:00,73.0,69.2,30.01,SSE,162,0.0,0.0,88,0.00,,,0.00,Wunderground v.1.15,2013-05-20 08:45:00,
2013-05-20 04:55:00,73.0,69.2,30.01,SSE,162,0.0,0.0,88,0.00,,,0.00,Wunderground v.1.15,2013-05-20 08:55:00,
2013-05-20 05:00:00,72.9,69.1,30.01,SSE,162,0.0,0.0,88,0.00,,,0.00,Wunderground v.1.15,2013-05-20 09:00:00,
2013-05-20 05:10:00,72.8,69.4,30.01,SSE,162,0.0,0.0,89,0.00,,,0.00,Wunderground v.1.15,2013-05-20 09:10:00,
2013-05-20 05:15:00,72.8,69.4,30.01,SSE,163,0.0,0.0,89,0.00,,,0.00,Wunderground v.1.15,2013-05-20 09:15:00,
2013-05-20 05:20:00,72.8,69.4,30.01,SSE,160,0.0,0.0,89,0.00,,,0.00,Wunderground v.1.15,2013-05-20 09:20:00,
2013-05-20 05:30:00,72.8,69.4,30.01,SSE,160,0.0,0.0,89,0.00,,,0.00,Wunderground v.1.15,2013-05-20 09:30:00,
2013-05-20 05:35:00,72.8,69.4,30.01,SSE,149,0.0,0.0,89,0.00,,,0.00,Wunderground v.1.15,2013-05-20 09:35:00,
2013-05-20 05:45:00,72.7,69.3,30.02,SSE,149,0.0,0.0,89,0.00,,,0.00,Wunderground v.1.15,2013-05-20 09:45:00,
2013-05-20 05:50:00,72.8,69.4,30.02,SSE,149,0.0,0.0,89,0.00,,,0.00,Wunderground v.1.15,2013-05-20 09:50:00,
2013-05-20 06:00:00,72.7,69.6,30.02,SSE,149,0.0,0.0,90,0.00,,,0.00,Wunderground v.1.15,2013-05-20 10:00:00,
2013-05-20 06:05:00,72.6,69.5,30.02,SSE,163,0.0,0.0,90,0.00,,,0.00,Wunderground v.1.15,2013-05-20 10:05:00,
2013-05-20 06:15:00,72.6,69.5,30.02,SSE,163,0.0,0.0,90,0.00,,,0.00,Wunderground v.1.15,2013-05-20 10:15:00,
2013-05-20 06:20:00,72.7,69.6,30.03,SSE,163,0.0,0.0,90,0.00,,,0.00,Wunderground v.1.15,2013-05-20 10:20:00,
2013-05-20 06:25:00,72.6,69.5,30.03,SSE,163,0.0,0.0,90,0.00,,,0.00,Wunderground v.1.15,2013-05-20 10:25:00,
2013-05-20 06:35:00,72.6,69.5,30.03,SSE,163,0.0,0.0,90,0.00,,,0.00,Wunderground v.1.15,2013-05-20 10:35:00,
2013-05-20 06:40:00,72.6,69.5,30.04,ESE,119,0.0,0.0,90,0.00,,,0.00,Wunderground v.1.15,2013-05-20 10:40:00,
2013-05-20 06:45:00,72.6,69.5,30.04,ESE,119,0.0,0.0,90,0.00,,,0.00,Wunderground v.1.15,2013-05-20 10:45:00,
2013-05-20 06:55:00,72.7,69.6,30.05,ESE,119,0.0,0.0,90,0.00,,,0.00,Wunderground v.1.15,2013-05-20 10:55:00,
2013-05-20 07:00:00,72.7,69.6,30.05,ESE,119,0.0,0.0,90,0.00,,,0.00,Wunderground v.1.15,2013-05-20 11:00:00,
2013-05-20 07:10:00,72.7,69.6,30.05,SSE,159,0.0,0.0,90,0.00,,,0.00,Wunderground v.1.15,2013-05-20 11:10:00,
2013-05-20 07:15:00,72.8,69.7,30.05,SSE,168,0.0,0.0,90,0.00,,,0.00,Wunderground v.1.15,2013-05-20 11:15:00,
2013-05-20 07:25:00,73.0,69.9,30.05,SSE,164,0.0,0.0,90,0.00,,,0.00,Wunderground v.1.15,2013-05-20 11:25:00,
2013-05-20 07:30:00,73.1,70.0,30.05,SSE,164,0.0,1.0,90,0.00,,,0.00,Wunderground v.1.15,2013-05-20 11:30:00,
2013-05-20 07:40:00,73.4,70.3,30.05,SW,222,0.0,1.0,90,0.00,,,0.00,Wunderground v.1.15,2013-05-20 11:40:00,
2013-05-20 07:45:00,73.6,70.2,30.05,SSE,161,0.0,1.0,89,0.00,,,0.00,Wunderground v.1.15,2013-05-20 11:45:00,
2013-05-20 07:55:00,74.0,70.2,30.06,SSE,152,1.0,2.0,88,0.00,,,0.00,Wunderground v.1.15,2013-05-20 11:55:00,
2013-05-20 08:05:00,74.4,70.6,30.05,SW,218,0.0,1.0,88,0.00,,,0.00,Wunderground v.1.15,2013-05-20 12:05:00,
2013-05-20 08:10:00,74.8,70.7,30.06,SSE,155,0.0,0.0,87,0.00,,,0.00,Wunderground v.1.15,2013-05-20 12:10:00,
2013-05-20 08:20:00,75.6,71.1,30.06,SSE,155,0.0,0.0,86,0.00,,,0.00,Wunderground v.1.15,2013-05-20 12:20:00,
2013-05-20 08:25:00,76.0,71.2,30.06,SSW,196,0.0,0.0,85,0.00,,,0.00,Wunderground v.1.15,2013-05-20 12:25:00,
2013-05-20 08:30:00,76.3,71.1,30.06,SSE,168,1.0,4.0,84,0.00,,,0.00,Wunderground v.1.15,2013-05-20 12:30:00,
2013-05-20 08:40:00,76.7,71.1,30.07,South,176,1.0,1.0,83,0.00,,,0.00,Wunderground v.1.15,2013-05-20 12:40:00,
2013-05-20 08:45:00,77.1,71.5,30.07,SE,135,1.0,1.0,83,0.00,,,0.00,Wunderground v.1.15,2013-05-20 12:45:00,
2013-05-20 08:55:00,77.9,71.2,30.07,SE,139,2.0,2.0,80,0.00,,,0.00,Wunderground v.1.15,2013-05-20 12:55:00,
2013-05-20 09:05:00,78.5,71.8,30.07,SSE,165,2.0,5.0,80,0.00,,,0.00,Wunderground v.1.15,2013-05-20 13:05:00,
2013-05-20 09:15:00,79.5,72.4,30.07,ESE,115,2.0,3.0,79,0.00,,,0.00,Wunderground v.1.15,2013-05-20 13:15:00,
2013-05-20 09:20:00,80.0,71.8,30.07,SSE,165,2.0,2.0,76,0.00,,,0.00,Wunderground v.1.15,2013-05-20 13:20:00,
2013-05-20 09:30:00,81.1,71.2,30.07,South,182,1.0,1.0,72,0.00,,,0.00,Wunderground v.1.15,2013-05-20 13:30:00,
2013-05-20 09:35:00,81.2,71.3,30.08,SE,128,1.0,4.0,72,0.00,,,0.00,Wunderground v.1.15,2013-05-20 13:35:00,
2013-05-20 09:40:00,81.2,71.3,30.07,WSW,252,1.0,1.0,72,0.00,,,0.00,Wunderground v.1.15,2013-05-20 13:40:00,
2013-05-20 09:50:00,81.1,70.8,30.07,SW,223,1.0,1.0,71,0.00,,,0.00,Wunderground v.1.15,2013-05-20 13:50:00,
2013-05-20 10:00:00,81.1,70.4,30.08,SW,227,1.0,3.0,70,0.00,,,0.00,Wunderground v.1.15,2013-05-20 14:00:00,
2013-05-20 10:05:00,81.1,69.5,30.08,SSE,159,1.0,3.0,68,0.00,,,0.00,Wunderground v.1.15,2013-05-20 14:05:00,
2013-05-20 10:15:00,81.1,70.0,30.08,WSW,254,1.0,2.0,69,0.00,,,0.00,Wunderground v.1.15,2013-05-20 14:15:00,
2013-05-20 10:20:00,81.4,70.7,30.08,South,180,1.0,1.0,70,0.00,,,0.00,Wunderground v.1.15,2013-05-20 14:20:00,
2013-05-20 10:25:00,82.0,70.8,30.08,SW,214,1.0,2.0,69,0.00,,,0.00,Wunderground v.1.15,2013-05-20 14:25:00,
2013-05-20 10:35:00,83.2,71.5,30.08,SW,229,1.0,1.0,68,0.00,,,0.00,Wunderground v.1.15,2013-05-20 14:35:00,
2013-05-20 10:40:00,83.6,70.1,30.08,East,90,1.0,2.0,64,0.00,,,0.00,Wunderground v.1.15,2013-05-20 14:40:00,
2013-05-20 10:50:00,83.8,70.3,30.08,South,171,1.0,2.0,64,0.00,,,0.00,Wunderground v.1.15,2013-05-20 14:50:00,
2013-05-20 10:55:00,84.3,71.2,30.07,SSE,153,1.0,4.0,65,0.00,,,0.00,Wunderground v.1.15,2013-05-20 14:55:00,
2013-05-20 11:05:00,84.2,70.2,30.07,SE,138,2.0,2.0,63,0.00,,,0.00,Wunderground v.1.15,2013-05-20 15:05:00,
2013-05-20 11:10:00,84.1,70.6,30.07,WSW,248,2.0,2.0,64,0.00,,,0.00,Wunderground v.1.15,2013-05-20 15:10:00,
2013-05-20 11:15:00,84.4,71.3,30.07,SW,225,1.0,2.0,65,0.00,,,0.00,Wunderground v.1.15,2013-05-20 15:15:00,
2013-05-20 11:25:00,85.3,70.8,30.07,South,179,2.0,2.0,62,0.00,,,0.00,Wunderground v.1.15,2013-05-20 15:25:00,
2013-05-20 11:30:00,85.6,71.1,30.07,SW,232,1.0,1.0,62,0.00,,,0.00,Wunderground v.1.15,2013-05-20 15:30:00,
2013-05-20 11:40:00,85.7,70.7,30.07,SSE,155,2.0,3.0,61,0.00,,,0.00,Wunderground v.1.15,2013-05-20 15:40:00,
2013-05-20 11:45:00,85.9,70.9,30.06,SSE,158,3.0,3.0,61,0.00,,,0.00,Wunderground v.1.15,2013-05-20 15:45:00,
2013-05-20 11:50:00,85.4,70.9,30.06,NW,304,2.0,2.0,62,0.00,,,0.00,Wunderground v.1.15,2013-05-20 15:50:00,
2013-05-20 12:00:00,86.0,70.5,30.05,NNW,328,1.0,2.0,60,0.00,,,0.00,Wunderground v.1.15,2013-05-20 16:00:00,
2013-05-20 12:05:00,85.5,70.5,30.06,SE,135,1.0,6.0,61,0.00,,,0.00,Wunderground v.1.15,2013-05-20 16:05:00,
2013-05-20 12:15:00,85.7,71.7,30.05,NNW,339,0.0,1.0,63,0.00,,,0.00,Wunderground v.1.15,2013-05-20 16:15:00,
2013-05-20 12:25:00,86.7,71.6,30.05,SSE,155,2.0,3.0,61,0.00,,,0.00,Wunderground v.1.15,2013-05-20 16:25:00,
2013-05-20 12:30:00,87.4,72.3,30.05,SSW,200,1.0,1.0,61,0.00,,,0.00,Wunderground v.1.15,2013-05-20 16:30:00,
2013-05-20 12:40:00,86.4,71.8,30.05,NE,36,1.0,4.0,62,0.00,,,0.00,Wunderground v.1.15,2013-05-20 16:40:00,
2013-05-20 12:45:00,85.9,71.4,30.05,East,91,1.0,4.0,62,0.00,,,0.00,Wunderground v.1.15,2013-05-20 16:45:00,
2013-05-20 12:50:00,85.7,71.7,30.04,South,176,1.0,3.0,63,0.00,,,0.00,Wunderground v.1.15,2013-05-20 16:50:00,
2013-05-20 13:00:00,85.9,70.4,30.04,NE,37,1.0,2.0,60,0.00,,,0.00,Wunderground v.1.15,2013-05-20 17:00:00,
2013-05-20 13:10:00,86.2,71.2,30.04,NE,55,1.0,1.0,61,0.00,,,0.00,Wunderground v.1.15,2013-05-20 17:10:00,
2013-05-20 13:15:00,86.5,71.0,30.03,South,190,1.0,1.0,60,0.00,,,0.00,Wunderground v.1.15,2013-05-20 17:15:00,
2013-05-20 13:25:00,87.0,70.4,30.03,SE,142,1.0,4.0,58,0.00,,,0.00,Wunderground v.1.15,2013-05-20 17:25:00,
2013-05-20 13:30:00,86.9,70.8,30.03,SSE,153,1.0,1.0,59,0.00,,,0.00,Wunderground v.1.15,2013-05-20 17:30:00,
2013-05-20 13:40:00,87.1,70.5,30.03,ESE,105,1.0,1.0,58,0.00,,,0.00,Wunderground v.1.15,2013-05-20 17:40:00,
2013-05-20 13:45:00,87.3,70.2,30.02,ESE,103,1.0,1.0,57,0.00,,,0.00,Wunderground v.1.15,2013-05-20 17:45:00,
2013-05-20 13:55:00,88.2,70.0,30.02,SE,134,2.0,2.0,55,0.00,,,0.00,Wunderground v.1.15,2013-05-20 17:55:00,
2013-05-20 14:00:00,88.2,71.0,30.02,NNE,31,1.0,2.0,57,0.00,,,0.00,Wunderground v.1.15,2013-05-20 18:00:00,
2013-05-20 14:05:00,88.5,70.8,30.02,NNE,24,1.0,2.0,56,0.00,,,0.00,Wunderground v.1.15,2013-05-20 18:05:00,
2013-05-20 14:15:00,88.5,69.7,30.02,SSE,160,2.0,2.0,54,0.00,,,0.00,Wunderground v.1.15,2013-05-20 18:15:00,
2013-05-20 14:20:00,88.6,69.8,30.01,North,355,1.0,1.0,54,0.00,,,0.00,Wunderground v.1.15,2013-05-20 18:20:00,
2013-05-20 14:30:00,89.6,70.8,30.01,South,186,2.0,2.0,54,0.00,,,0.00,Wunderground v.1.15,2013-05-20 18:30:00,
2013-05-20 14:35:00,89.7,70.3,30.00,South,178,2.0,2.0,53,0.00,,,0.00,Wunderground v.1.15,2013-05-20 18:35:00,
2013-05-20 14:45:00,89.0,70.2,30.00,NNE,22,1.0,2.0,54,0.00,,,0.00,Wunderground v.1.15,2013-05-20 18:45:00,
2013-05-20 14:50:00,88.0,69.8,30.00,East,100,1.0,2.0,55,0.00,,,0.00,Wunderground v.1.15,2013-05-20 18:50:00,
2013-05-20 15:00:00,87.3,69.2,30.00,NE,46,0.0,0.0,55,0.00,,,0.00,Wunderground v.1.15,2013-05-20 19:00:00,
2013-05-20 15:05:00,87.0,69.4,29.99,NE,47,0.0,1.0,56,0.00,,,0.00,Wunderground v.1.15,2013-05-20 19:05:00,
2013-05-20 15:15:00,86.6,68.5,29.99,SSE,154,1.0,1.0,55,0.00,,,0.00,Wunderground v.1.15,2013-05-20 19:15:00,
2013-05-20 15:20:00,86.4,68.3,30.00,SE,138,0.0,2.0,55,0.00,,,0.00,Wunderground v.1.15,2013-05-20 19:20:00,
2013-05-20 15:30:00,85.9,67.9,30.01,WSW,240,0.0,0.0,55,0.00,,,0.00,Wunderground v.1.15,2013-05-20 19:30:00,
2013-05-20 15:35:00,85.8,67.2,30.01,ENE,78,0.0,0.0,54,0.00,,,0.00,Wunderground v.1.15,2013-05-20 19:35:00,
2013-05-20 15:45:00,81.8,62.5,30.02,East,81,3.0,4.0,52,0.00,,,0.00,Wunderground v.1.15,2013-05-20 19:45:00,
2013-05-20 15:50:00,79.7,61.6,30.01,North,355,4.0,4.0,54,0.00,,,0.00,Wunderground v.1.15,2013-05-20 19:50:00,
2013-05-20 16:00:00,78.2,59.7,30.01,North,355,4.0,4.0,53,0.00,,,0.00,Wunderground v.1.15,2013-05-20 20:00:00,
2013-05-20 16:05:00,77.7,59.7,30.00,NNE,15,3.0,5.0,54,0.00,,,0.00,Wunderground v.1.15,2013-05-20 20:05:00,
2013-05-20 16:15:00,76.8,61.4,30.01,NNW,329,2.0,3.0,59,0.00,,,0.00,Wunderground v.1.15,2013-05-20 20:15:00,
2013-05-20 16:20:00,76.4,62.4,30.02,East,99,1.0,1.0,62,0.00,,,0.00,Wunderground v.1.15,2013-05-20 20:20:00,
2013-05-20 16:30:00,74.9,63.6,30.02,NNW,337,1.0,2.0,68,0.00,,,0.00,Wunderground v.1.15,2013-05-20 20:30:00,
2013-05-20 16:35:00,73.6,64.0,30.02,NW,326,2.0,3.0,72,0.00,,,0.01,Wunderground v.1.15,2013-05-20 20:35:00,
2013-05-20 16:45:00,71.8,64.9,30.00,NNW,342,1.0,2.0,79,0.00,,,0.01,Wunderground v.1.15,2013-05-20 20:45:00,
2013-05-20 16:50:00,71.6,65.1,30.00,ENE,57,0.0,0.0,80,0.00,,,0.01,Wunderground v.1.15,2013-05-20 20:50:00,
2013-05-20 16:55:00,71.6,65.1,30.00,NNW,345,0.0,0.0,80,0.00,,,0.01,Wunderground v.1.15,2013-05-20 20:55:00,
2013-05-20 17:05:00,71.1,66.0,30.01,SSE,157,0.0,0.0,84,0.00,,,0.02,Wunderground v.1.15,2013-05-20 21:05:00,
2013-05-20 17:10:00,70.5,66.1,30.00,NE,52,0.0,2.0,86,0.06,,,0.03,Wunderground v.1.15,2013-05-20 21:10:00,
2013-05-20 17:15:00,70.2,65.8,30.00,ESE,117,0.0,2.0,86,0.06,,,0.03,Wunderground v.1.15,2013-05-20 21:15:00,
2013-05-20 17:25:00,70.5,67.1,30.01,ESE,113,1.0,2.0,89,0.00,,,0.03,Wunderground v.1.15,2013-05-20 21:25:00,
2013-05-20 17:35:00,71.1,66.7,30.02,North,5,2.0,4.0,86,0.00,,,0.03,Wunderground v.1.15,2013-05-20 21:35:00,
2013-05-20 17:40:00,71.5,67.1,30.02,NNW,338,1.0,1.0,86,0.00,,,0.03,Wunderground v.1.15,2013-05-20 21:40:00,
2013-05-20 17:50:00,72.7,67.6,30.03,East,88,2.0,2.0,84,0.00,,,0.03,Wunderground v.1.15,2013-05-20 21:50:00,
2013-05-20 18:00:00,73.3,67.5,30.04,SE,140,2.0,2.0,82,0.00,,,0.03,Wunderground v.1.15,2013-05-20 22:00:00,
2013-05-20 18:05:00,73.5,66.9,30.04,NE,50,2.0,3.0,80,0.00,,,0.03,Wunderground v.1.15,2013-05-20 22:05:00,
2013-05-20 18:15:00,73.5,66.9,30.04,East,79,1.0,2.0,80,0.00,,,0.03,Wunderground v.1.15,2013-05-20 22:15:00,
2013-05-20 18:20:00,73.6,67.0,30.03,East,99,1.0,1.0,80,0.00,,,0.03,Wunderground v.1.15,2013-05-20 22:20:00,
2013-05-20 18:25:00,73.6,67.0,30.03,NW,315,2.0,2.0,80,0.00,,,0.03,Wunderground v.1.15,2013-05-20 22:25:00,
2013-05-20 18:35:00,73.5,66.9,30.03,ENE,78,1.0,4.0,80,0.00,,,0.03,Wunderground v.1.15,2013-05-20 22:35:00,
2013-05-20 18:40:00,73.5,67.3,30.02,East,86,0.0,0.0,81,0.00,,,0.03,Wunderground v.1.15,2013-05-20 22:40:00,
2013-05-20 18:50:00,73.4,67.6,30.03,NNW,343,1.0,1.0,82,0.00,,,0.03,Wunderground v.1.15,2013-05-20 22:50:00,
2013-05-20 19:00:00,73.3,67.5,30.02,North,355,1.0,2.0,82,0.00,,,0.03,Wunderground v.1.15,2013-05-20 23:00:00,
2013-05-20 19:05:00,73.2,67.4,30.02,NE,51,1.0,2.0,82,0.00,,,0.03,Wunderground v.1.15,2013-05-20 23:05:00,
2013-05-20 19:15:00,73.2,68.1,30.01,NW,312,0.0,2.0,84,0.00,,,0.03,Wunderground v.1.15,2013-05-20 23:15:00,
2013-05-20 19:20:00,73.0,67.9,30.01,East,94,0.0,0.0,84,0.00,,,0.03,Wunderground v.1.15,2013-05-20 23:20:00,
2013-05-20 19:25:00,72.8,68.0,30.01,North,5,0.0,0.0,85,0.00,,,0.03,Wunderground v.1.15,2013-05-20 23:25:00,
2013-05-20 19:35:00,72.7,68.3,30.01,ENE,63,0.0,0.0,86,0.00,,,0.03,Wunderground v.1.15,2013-05-20 23:35:00,
2013-05-20 19:40:00,72.6,68.5,30.02,ENE,63,0.0,0.0,87,0.00,,,0.03,Wunderground v.1.15,2013-05-20 23:40:00,
2013-05-20 19:50:00,72.6,68.8,30.04,NNW,336,0.0,0.0,88,0.00,,,0.03,Wunderground v.1.15,2013-05-20 23:50:00,
2013-05-20 19:55:00,72.5,68.4,30.04,NNW,327,0.0,0.0,87,0.00,,,0.03,Wunderground v.1.15,2013-05-20 23:55:00,
2013-05-20 20:05:00,72.3,68.5,30.05,NNW,327,0.0,0.0,88,0.00,,,0.03,Wunderground v.1.15,2013-05-21 00:05:00,
2013-05-20 20:15:00,72.2,68.8,30.05,NNE,16,0.0,0.0,89,0.00,,,0.03,Wunderground v.1.15,2013-05-21 00:15:00,
2013-05-20 20:20:00,72.0,68.9,30.06,NNE,16,0.0,0.0,90,0.00,,,0.03,Wunderground v.1.15,2013-05-21 00:20:00,
2013-05-20 20:30:00,71.7,68.6,30.06,NNE,16,0.0,0.0,90,0.00,,,0.03,Wunderground v.1.15,2013-05-21 00:30:00,
2013-05-20 20:35:00,71.5,68.7,30.06,NNE,16,0.0,0.0,91,0.00,,,0.03,Wunderground v.1.15,2013-05-21 00:35:00,
2013-05-20 20:40:00,71.4,68.6,30.06,NNE,16,0.0,0.0,91,0.00,,,0.03,Wunderground v.1.15,2013-05-21 00:40:00,
2013-05-20 20:50:00,71.2,68.4,30.06,NNE,16,0.0,0.0,91,0.00,,,0.03,Wunderground v.1.15,2013-05-21 00:50:00,
2013-05-20 21:00:00,71.0,68.2,30.06,NNE,16,0.0,0.0,91,0.00,,,0.03,Wunderground v.1.15,2013-05-21 01:00:00,
2013-05-20 21:10:00,71.0,68.2,30.06,NNE,16,0.0,0.0,91,0.00,,,0.03,Wunderground v.1.15,2013-05-21 01:10:00,
2013-05-20 21:15:00,70.9,68.1,30.06,NNE,16,0.0,0.0,91,0.00,,,0.03,Wunderground v.1.15,2013-05-21 01:15:00,
2013-05-20 21:20:00,70.9,68.1,30.06,NNE,16,0.0,0.0,91,0.00,,,0.03,Wunderground v.1.15,2013-05-21 01:20:00,
2013-05-20 21:30:00,70.9,68.5,30.05,NNE,16,0.0,0.0,92,0.00,,,0.03,Wunderground v.1.15,2013-05-21 01:30:00,
2013-05-20 21:35:00,70.8,68.4,30.05,NNE,16,0.0,0.0,92,0.00,,,0.03,Wunderground v.1.15,2013-05-21 01:35:00,
2013-05-20 21:45:00,70.8,68.4,30.05,NNE,16,0.0,0.0,92,0.00,,,0.03,Wunderground v.1.15,2013-05-21 01:45:00,
2013-05-20 21:50:00,70.8,68.4,30.05,NNE,16,0.0,0.0,92,0.00,,,0.03,Wunderground v.1.15,2013-05-21 01:50:00,
2013-05-20 21:55:00,70.7,68.3,30.05,NNE,16,0.0,0.0,92,0.00,,,0.03,Wunderground v.1.15,2013-05-21 01:55:00,
2013-05-20 22:05:00,70.6,68.2,30.05,NNE,16,0.0,0.0,92,0.00,,,0.03,Wunderground v.1.15,2013-05-21 02:05:00,
2013-05-20 22:15:00,70.5,68.1,30.05,NNE,16,0.0,0.0,92,0.00,,,0.03,Wunderground v.1.15,2013-05-21 02:15:00,
2013-05-20 22:20:00,70.5,68.1,30.05,NNE,16,0.0,0.0,92,0.00,,,0.03,Wunderground v.1.15,2013-05-21 02:20:00,
2013-05-20 22:30:00,70.4,68.0,30.05,NNE,16,0.0,0.0,92,0.00,,,0.03,Wunderground v.1.15,2013-05-21 02:30:00,
2013-05-20 22:35:00,70.4,68.0,30.05,NNE,16,0.0,0.0,92,0.00,,,0.03,Wunderground v.1.15,2013-05-21 02:35:00,
2013-05-20 22:45:00,70.2,67.8,30.05,NNE,16,0.0,0.0,92,0.00,,,0.03,Wunderground v.1.15,2013-05-21 02:45:00,
2013-05-20 22:50:00,70.1,67.7,30.05,NNE,16,0.0,0.0,92,0.00,,,0.03,Wunderground v.1.15,2013-05-21 02:50:00,
2013-05-20 22:55:00,69.9,67.8,30.04,NNE,16,0.0,0.0,93,0.00,,,0.03,Wunderground v.1.15,2013-05-21 02:55:00,
2013-05-20 23:05:00,69.7,67.6,30.04,NNE,16,0.0,0.0,93,0.00,,,0.03,Wunderground v.1.15,2013-05-21 03:05:00,
2013-05-20 23:15:00,69.5,67.4,30.04,NNE,16,0.0,0.0,93,0.00,,,0.03,Wunderground v.1.15,2013-05-21 03:15:00,
2013-05-20 23:20:00,69.4,67.3,30.04,NNE,16,0.0,0.0,93,0.00,,,0.03,Wunderground v.1.15,2013-05-21 03:20:00,
2013-05-20 23:30:00,69.2,67.1,30.03,NNE,16,0.0,0.0,93,0.00,,,0.03,Wunderground v.1.15,2013-05-21 03:30:00,
2013-05-20 23:35:00,69.1,67.0,30.03,NNE,16,0.0,0.0,93,0.00,,,0.03,Wunderground v.1.15,2013-05-21 03:35:00,
2013-05-20 23:45:00,69.0,67.2,30.03,NNE,16,0.0,0.0,94,0.00,,,0.03,Wunderground v.1.15,2013-05-21 03:45:00,
2013-05-20 23:50:00,68.9,67.1,30.03,NNE,16,0.0,0.0,94,0.00,,,0.03,Wunderground v.1.15,2013-05-21 03:50:00,